Погода в Лацком

Россия / Ярославская область     58°04′39″N   38°07′43″E
темп.,
°C
ветер,
м/с
пор.,
м/с
влажн.,
%
обл.,
%
осадки,
мм/ч
давл.,
гПа
погр.,
м
22 апреля, чт
чт2200:00+2ююз3995100 0.0 1009376
03:00+2ю3896100 0.0 1009206
06:00+2ю4119377 0.1 1010349
09:00+7ююз61079100 0.1 1010697
12:00+8ююз7107894 0.1 1011999
15:00+11юз576571 0.1 10111241
18:00+11ююз48655 0.3 1012626
21:00+7ю3118917 0.3 1013237
23 апреля, пт
пт2300:00+6ююв3119170 0.0 1013256
03:00+6ююв4129321 0.0 1012300
06:00+6ююв4129318 0.0 1012353
09:00+11ю61374100 0.0 1012774
12:00+12ю71567100 0.1 10111549
15:00+15ю71457100 0.8 10102123
18:00+6юз2118898 1.6 1012491
21:00+5ююз2593100 1.8 1013197
24 апреля, сб
сб2400:00+5зсз2392100 1.8 1012258
03:00+4ссв3595100 3.7 1009279
06:00+5в2995100 0.2 1006485
09:00+9юв51287100 0.8 10031188
12:00+2з4796100 1.6 1004277
15:00+3з41198100 4.2 1006474
18:00+4зсз2688100 0.1 1006619
21:00+3зсз1292100 0.3 1006110
25 апреля, вс
вс2500:00+2з2595100 0.0 1006158
03:00+1з3987100 0.0 1006249
06:00+1зюз3886100 0.0 1006271
09:00+4з4775100 0.0 1006817
12:00+5зюз5766100 0.1 10061431
15:00+7зюз575099 0.4 10061801
18:00+6зюз465794 0.5 10071271
21:00+2юз38795 0.6 1007160
26 апреля, пн
пн2600:00+1юз39895 0.0 1008276
03:000юз39935 0.0 1009277
06:000ююз389173 0.0 1009324
09:00+4юз576861 0.0 10091023
12:00+5юз566497 0.4 10091428
15:00+4юз4669100 0.6 10091167
18:00+5юз366268 0.0 10081203
21:00+1ю23764 0.0 100850